Hourly Data Report for July 18, 2021

CAMPBELL RIVER A
BRITISH COLUMBIA
Current Station Operator: NAVCAN

49°57'07.000" N
125°16'23.000" W
108.80 m
1021270
YBL

Download Data

Hourly Data (July 2021)
Hourly Data Report for July 18, 2021
TIME
LST
Temp Definition
°C
Dew Point Definition
°C
Rel Hum Definition
%
Precip. Amount Definition
mm

Wind Dir Definition
10's deg

Wind Spd Definition
km/h
Visibility Definition
km
Stn Press Definition
kPa
Hmdx Definition


Wind Chill Definition


Weather Definition


00:00 10.4 9.9 96 LegendMM 29 4 LegendMM 100.64     LegendNANA
01:00 10.6 9.7 94 LegendMM 29 8 LegendMM 100.68     LegendNANA
02:00 12.4 11.2 92 LegendMM 29 11 LegendMM 100.69     LegendNANA
03:00 11.5 10.8 96 LegendMM 29 10 LegendMM 100.71     LegendNANA
04:00 10.9 10.0 94 LegendMM 33 4 LegendMM 100.70     LegendNANA
05:00 11.0 10.2 95 LegendMM 27 4 LegendMM 100.75     LegendNANA
06:00 14.0 12.0 87 LegendMM 30 8 LegendMM 100.78     LegendNANA
07:00 15.5 11.0 74 LegendMM 30 8 LegendMM 100.82     LegendNANA
08:00 17.5 10.7 64 LegendMM 33 8 LegendMM 100.83     LegendNANA
09:00 19.2 11.6 61 LegendMM 25 2 LegendMM 100.85     LegendNANA
10:00 19.8 10.9 56 LegendMM 6 14 LegendMM 100.84     LegendNANA
11:00 19.6 11.6 60 LegendMM 6 10 LegendMM 100.87     LegendNANA
12:00 19.8 11.1 57 LegendMM 9 5 LegendMM 100.87     LegendNANA
13:00 21.0 10.7 51 LegendMM 10 7 LegendMM 100.84     LegendNANA
14:00 22.1 11.2 50 LegendMM 7 12 LegendMM 100.84     LegendNANA
15:00 21.7 10.6 49 LegendMM 6 11 LegendMM 100.80     LegendNANA
16:00 22.4 10.8 47 LegendMM 9 8 LegendMM 100.75     LegendNANA
17:00 22.2 9.9 45 LegendMM 4 7 LegendMM 100.72     LegendNANA
18:00 22.2 8.7 41 LegendMM 6 5 LegendMM 100.68     LegendNANA
19:00 22.2 8.9 42 LegendMM 35 5 LegendMM 100.66     LegendNANA
20:00 16.8 10.8 68 LegendMM 29 2 LegendMM 100.66     LegendNANA
21:00 14.6 11.7 83 LegendMM 28 3 LegendMM 100.68     LegendNANA
22:00 12.2 11.1 93 LegendMM 31 5 LegendMM 100.69     LegendNANA
23:00 11.6 10.1 90 LegendMM 31 9 LegendMM 100.68     LegendNANA

Notes on Data Quality.

Legend

  • E = Estimated
  • M = Missing
  • NA = Not Available*
  • [empty] = Indicates an unobserved value
Date modified: